| time (UTC) | temp F | wind direction | speed knots | gust knots | rain 1hr in | rain 24hr in | rain mn in | humidity % | barometer mb |
| 20260507213551 | 96 | 360 | 2.6 | 69.5 | 0.00 | 0.00 | 0.00 | 14 | 1006.2 |
| 20260507213033 | 95 | 360 | 0.9 | 43.4 | 0.00 | 0.00 | 0.00 | 13 | 1006.3 |
| 20260507212519 | 95 | 360 | 3.5 | 43.4 | 0.00 | 0.00 | 0.00 | 13 | 1006.5 |
| 20260507212004 | 95 | 360 | 1.7 | 52.1 | 0.00 | 0.00 | 0.00 | 14 | 1006.5 |
| 20260507211440 | 95 | 360 | 1.7 | 52.1 | 0.00 | 0.00 | 0.00 | 13 | 1006.6 |
| 20260507210916 | 95 | 360 | 1.7 | 52.1 | 0.00 | 0.00 | 0.00 | 14 | 1006.7 |
| 20260507210400 | 95 | 360 | 0.9 | 52.1 | 0.00 | 0.00 | 0.00 | 13 | 1006.8 |
| 20260507205845 | 95 | 360 | 1.7 | 52.1 | 0.00 | 0.00 | 0.00 | 13 | 1006.9 |
| 20260507205325 | 95 | 360 | 1.7 | 43.4 | 0.00 | 0.00 | 0.00 | 13 | 1006.9 |
| 20260507204810 | 96 | 360 | 1.7 | 34.8 | 0.00 | 0.00 | 0.00 | 13 | 1007.0 |
| 20260507204254 | 95 | 360 | 0.0 | 43.4 | 0.00 | 0.00 | 0.00 | 13 | 1007.0 |
| 20260507203738 | 95 | 360 | 1.7 | 34.8 | 0.00 | 0.00 | 0.00 | 13 | 1007.1 |
| 20260507203223 | 95 | 360 | 2.6 | 34.8 | 0.00 | 0.00 | 0.00 | 13 | 1007.2 |
| 20260507202708 | 95 | 360 | 0.0 | 26.1 | 0.00 | 0.00 | 0.00 | 13 | 1007.2 |
| 20260507202154 | 94 | 360 | 1.7 | 26.1 | 0.00 | 0.00 | 0.00 | 14 | 1007.3 |
| 20260507201617 | 94 | 360 | 0.0 | 34.8 | 0.00 | 0.00 | 0.00 | 14 | 1007.4 |
| 20260507201052 | 93 | 360 | 1.7 | 52.1 | 0.00 | 0.00 | 0.00 | 14 | 1007.5 |
| 20260507200537 | 93 | 360 | 3.5 | 52.1 | 0.00 | 0.00 | 0.00 | 14 | 1007.6 |
| 20260507200015 | 93 | 360 | 1.7 | 34.8 | 0.00 | 0.00 | 0.00 | 14 | 1007.7 |
| 20260507195430 | 92 | 360 | 2.6 | 43.4 | 0.00 | 0.00 | 0.00 | 15 | 1007.8 |
| 20260507194911 | 90 | 360 | 0.9 | 43.4 | 0.00 | 0.00 | 0.00 | 15 | 1007.9 |
| 20260507194349 | 92 | 360 | 1.7 | 26.1 | 0.00 | 0.00 | 0.00 | 15 | 1008.1 |
| 20260507193834 | 92 | 360 | 0.9 | 34.8 | 0.00 | 0.00 | 0.00 | 16 | 1008.1 |
| 20260507193320 | 92 | 360 | 0.9 | 43.4 | 0.00 | 0.00 | 0.00 | 15 | 1008.2 |
| 20260507192205 | 93 | 360 | 1.7 | 52.1 | 0.00 | 0.00 | 0.00 | 15 | 1008.3 |
| 20260507191643 | 92 | 360 | 2.6 | 43.4 | 0.00 | 0.00 | 0.00 | 15 | 1008.4 |
| 20260507191128 | 91 | 360 | 0.9 | 43.4 | 0.00 | 0.00 | 0.00 | 16 | 1008.6 |
| 20260507190610 | 91 | 360 | 0.9 | 26.1 | 0.00 | 0.00 | 0.00 | 16 | 1008.6 |
| 20260507190045 | 91 | 360 | 0.9 | 34.8 | 0.00 | 0.00 | 0.00 | 15 | 1008.8 |
| 20260507185530 | 90 | 360 | 2.6 | 43.4 | 0.00 | 0.00 | 0.00 | 17 | 1008.7 |
| 20260507184359 | 89 | 360 | 1.7 | 52.1 | 0.00 | 0.00 | 0.00 | 18 | 1008.9 |
| 20260507183838 | 88 | 360 | 0.9 | 52.1 | 0.00 | 0.00 | 0.00 | 18 | 1009.1 |
| 20260507183324 | 88 | 360 | 2.6 | 43.4 | 0.00 | 0.00 | 0.00 | 18 | 1009.2 |
| 20260507182806 | 87 | 360 | 3.5 | 52.1 | 0.00 | 0.00 | 0.00 | 18 | 1009.2 |
| 20260507182252 | 88 | 360 | 1.7 | 52.1 | 0.00 | 0.00 | 0.00 | 19 | 1009.3 |
| 20260507181724 | 88 | 360 | 0.0 | 26.1 | 0.00 | 0.00 | 0.00 | 18 | 1009.4 |
| 20260507181154 | 88 | 360 | 1.7 | 26.1 | 0.00 | 0.00 | 0.00 | 19 | 1009.4 |
| 20260507180630 | 88 | 360 | 0.0 | 34.8 | 0.00 | 0.00 | 0.00 | 19 | 1009.5 |
| 20260507180111 | 87 | 360 | 1.7 | 43.4 | 0.00 | 0.00 | 0.00 | 20 | 1009.6 |
| 20260507175556 | 87 | 360 | 0.9 | 43.4 | 0.00 | 0.00 | 0.00 | 20 | 1009.6 |
| 20260507175040 | 86 | 360 | 1.7 | 34.8 | 0.00 | 0.00 | 0.00 | 20 | 1009.6 |
| 20260507174526 | 86 | 360 | 0.0 | 43.4 | 0.00 | 0.00 | 0.00 | 22 | 1009.6 |
| 20260507174007 | 85 | 360 | 3.5 | 34.8 | 0.00 | 0.00 | 0.00 | 22 | 1009.7 |
| 20260507173453 | 85 | 360 | 2.6 | 34.8 | 0.00 | 0.00 | 0.00 | 23 | 1009.7 |
| 20260507172938 | 84 | 360 | 0.9 | 26.1 | 0.00 | 0.00 | 0.00 | 22 | 1009.8 |
| 20260507171822 | 83 | 360 | 0.9 | 34.8 | 0.00 | 0.00 | 0.00 | 25 | 1009.9 |
| 20260507171308 | 83 | 360 | 0.9 | 34.8 | 0.00 | 0.00 | 0.00 | 23 | 1009.9 |
| 20260507170743 | 84 | 360 | 1.7 | 34.8 | 0.00 | 0.00 | 0.00 | 23 | 1010.0 |
| 20260507170229 | 84 | 360 | 1.7 | 34.8 | 0.00 | 0.00 | 0.00 | 23 | 1010.0 |
| 20260507165709 | 83 | 360 | 2.6 | 34.8 | 0.00 | 0.00 | 0.00 | 23 | 1010.1 |
| 20260507165134 | 82 | 360 | 0.9 | 26.1 | 0.00 | 0.00 | 0.00 | 25 | 1010.1 |
| 20260507164609 | 81 | 360 | 0.0 | 26.1 | 0.00 | 0.00 | 0.00 | 25 | 1010.2 |
| 20260507164032 | 81 | 360 | 0.9 | 26.1 | 0.00 | 0.00 | 0.00 | 25 | 1010.2 |
| 20260507162914 | 80 | 360 | 0.0 | 34.8 | 0.00 | 0.00 | 0.00 | 27 | 1010.2 |
| 20260507162354 | 79 | 360 | 0.9 | 26.1 | 0.00 | 0.00 | 0.00 | 29 | 1010.3 |
| 20260507161837 | 79 | 360 | 0.0 | 8.7 | 0.00 | 0.00 | 0.00 | 30 | 1010.3 |
| 20260507160712 | 77 | 360 | 0.0 | 26.1 | 0.00 | 0.00 | 0.00 | 31 | 1010.4 |
| 20260507160151 | 76 | 360 | 1.7 | 26.1 | 0.00 | 0.00 | 0.00 | 32 | 1010.5 |
| 20260507155637 | 76 | 360 | 0.0 | 17.4 | 0.00 | 0.00 | 0.00 | 33 | 1010.6 |
| 20260507155115 | 75 | 360 | 0.0 | 8.7 | 0.00 | 0.00 | 0.00 | 34 | 1010.6 |
| 20260507154555 | 74 | 360 | 0.0 | 17.4 | 0.00 | 0.00 | 0.00 | 34 | 1010.6 |
| 20260507154041 | 74 | 360 | 0.9 | 17.4 | 0.00 | 0.00 | 0.00 | 34 | 1010.6 |
| 20260507153527 | 74 | 360 | 0.9 | 17.4 | 0.00 | 0.00 | 0.00 | 34 | 1010.6 |
| 20260507153008 | 73 | 360 | 0.0 | 17.4 | 0.00 | 0.00 | 0.00 | 34 | 1010.6 |
| 20260507152453 | 73 | 360 | 0.9 | 17.4 | 0.00 | 0.00 | 0.00 | 35 | 1010.5 |
| 20260507151934 | 73 | 360 | 0.0 | 26.1 | 0.00 | 0.00 | 0.00 | 34 | 1010.6 |
| 20260507151412 | 72 | 360 | 0.0 | 26.1 | 0.00 | 0.00 | 0.00 | 34 | 1010.6 |
| 20260507150857 | 72 | 360 | 0.0 | 8.7 | 0.00 | 0.00 | 0.00 | 36 | 1010.7 |
| 20260507150343 | 71 | 360 | 0.0 | 8.7 | 0.00 | 0.00 | 0.00 | 36 | 1010.6 |
| 20260507145825 | 70 | 360 | 0.0 | 26.1 | 0.00 | 0.00 | 0.00 | 39 | 1010.7 |
| 20260507145307 | 70 | 360 | 0.0 | 26.1 | 0.00 | 0.00 | 0.00 | 39 | 1010.7 |
| 20260507144743 | 69 | 360 | 1.7 | 17.4 | 0.00 | 0.00 | 0.00 | 40 | 1010.7 |
| 20260507144228 | 69 | 360 | 1.7 | 17.4 | 0.00 | 0.00 | 0.00 | 39 | 1010.7 |
| 20260507143130 | 68 | 360 | 0.0 | 0.0 | 0.00 | 0.00 | 0.00 | 39 | 1010.7 |
| 20260507142611 | 68 | 360 | 0.0 | 0.0 | 0.00 | 0.00 | 0.00 | 41 | 1010.7 |
| 20260507142038 | 67 | 360 | 0.0 | 17.4 | 0.00 | 0.00 | 0.00 | 42 | 1010.6 |
| 20260507141523 | 67 | 360 | 0.0 | 26.1 | 0.00 | 0.00 | 0.00 | 43 | 1010.4 |
| 20260507141002 | 66 | 360 | 0.9 | 26.1 | 0.00 | 0.00 | 0.00 | 44 | 1010.4 |
| 20260507140446 | 65 | 360 | 0.0 | 26.1 | 0.00 | 0.00 | 0.00 | 45 | 1010.4 |
| 20260507135919 | 64 | 360 | 0.9 | 26.1 | 0.00 | 0.00 | 0.00 | 48 | 1010.4 |
| 20260507135405 | 63 | 360 | 0.0 | 0.0 | 0.00 | 0.00 | 0.00 | 50 | 1010.4 |
| 20260507134850 | 62 | 360 | 0.0 | 0.0 | 0.00 | 0.00 | 0.00 | 50 | 1010.4 |
| 20260507134331 | 61 | 360 | 0.0 | 0.0 | 0.00 | 0.00 | 0.00 | 49 | 1010.4 |
| 20260507133809 | 61 | 360 | 0.0 | 0.0 | 0.00 | 0.00 | 0.00 | 51 | 1010.3 |
| 20260507133254 | 60 | 360 | 0.0 | 0.0 | 0.00 | 0.00 | 0.00 | 50 | 1010.3 |
| 20260507132740 | 60 | 360 | 0.0 | 0.0 | 0.00 | 0.00 | 0.00 | 50 | 1010.2 |
| 20260507132214 | 60 | 360 | 0.0 | 0.0 | 0.00 | 0.00 | 0.00 | 49 | 1010.2 |
| 20260507131654 | 60 | 360 | 0.0 | 0.0 | 0.00 | 0.00 | 0.00 | 50 | 1010.1 |
| 20260507131137 | 60 | 360 | 0.0 | 0.0 | 0.00 | 0.00 | 0.00 | 50 | 1010.2 |
| 20260507130617 | 60 | 360 | 0.0 | 0.0 | 0.00 | 0.00 | 0.00 | 49 | 1010.1 |
| 20260507125541 | 60 | 360 | 0.0 | 26.1 | 0.00 | 0.00 | 0.00 | 49 | 1010.0 |
| 20260507125027 | 60 | 360 | 0.0 | 26.1 | 0.00 | 0.00 | 0.00 | 49 | 1010.0 |
| 20260507124507 | 60 | 360 | 0.0 | 17.4 | 0.00 | 0.00 | 0.00 | 49 | 1010.0 |
| 20260507123952 | 60 | 360 | 0.0 | 8.7 | 0.00 | 0.00 | 0.00 | 49 | 1009.9 |
| 20260507123437 | 60 | 360 | 0.0 | 17.4 | 0.00 | 0.00 | 0.00 | 49 | 1009.9 |
| 20260507122917 | 60 | 360 | 0.0 | 26.1 | 0.00 | 0.00 | 0.00 | 49 | 1009.9 |
| 20260507122403 | 60 | 360 | 1.7 | 34.8 | 0.00 | 0.00 | 0.00 | 50 | 1010.0 |
| 20260507121847 | 59 | 360 | 1.7 | 26.1 | 0.00 | 0.00 | 0.00 | 50 | 1010.0 |
| 20260507121332 | 59 | 360 | 0.0 | 0.0 | 0.00 | 0.00 | 0.00 | 51 | 1009.9 |
| 20260507120818 | 59 | 360 | 0.0 | 0.0 | 0.00 | 0.00 | 0.00 | 52 | 1010.0 |
| 20260507120256 | 59 | 360 | 0.0 | 0.0 | 0.00 | 0.00 | 0.00 | 54 | 1010.0 |
| 20260507115741 | 60 | 360 | 0.0 | 0.0 | 0.00 | 0.00 | 0.00 | 53 | 1010.0 |
| 20260507115225 | 60 | 360 | 0.0 | 0.0 | 0.00 | 0.00 | 0.00 | 53 | 1010.0 |
| 20260507114700 | 60 | 360 | 0.0 | 0.0 | 0.00 | 0.00 | 0.00 | 51 | 1010.0 |
| 20260507114129 | 60 | 360 | 0.0 | 0.0 | 0.00 | 0.00 | 0.00 | 51 | 1010.0 |
| 20260507113609 | 60 | 360 | 0.0 | 0.0 | 0.00 | 0.00 | 0.00 | 48 | 1009.9 |
| 20260507113055 | 60 | 360 | 0.0 | 0.0 | 0.00 | 0.00 | 0.00 | 47 | 1009.9 |
| 20260507112531 | 61 | 360 | 0.0 | 0.0 | 0.00 | 0.00 | 0.00 | 47 | 1010.0 |
| 20260507112016 | 61 | 360 | 0.0 | 0.0 | 0.00 | 0.00 | 0.00 | 47 | 1010.1 |
| 20260507111503 | 61 | 360 | 0.0 | 0.0 | 0.00 | 0.00 | 0.00 | 47 | 1010.0 |
| 20260507110947 | 61 | 360 | 0.0 | 0.0 | 0.00 | 0.00 | 0.00 | 45 | 1010.0 |
| 20260507110430 | 61 | 360 | 0.0 | 0.0 | 0.00 | 0.00 | 0.00 | 46 | 1010.0 |
| 20260507105905 | 62 | 360 | 0.0 | 0.0 | 0.00 | 0.00 | 0.00 | 46 | 1010.0 |
| 20260507105350 | 62 | 360 | 0.0 | 0.0 | 0.00 | 0.00 | 0.00 | 46 | 1010.0 |
| 20260507104831 | 62 | 360 | 0.0 | 0.0 | 0.00 | 0.00 | 0.00 | 45 | 1010.0 |
| 20260507104308 | 62 | 360 | 0.0 | 8.7 | 0.00 | 0.00 | 0.00 | 44 | 1010.1 |
| 20260507103747 | 62 | 360 | 0.0 | 8.7 | 0.00 | 0.00 | 0.00 | 44 | 1010.1 |
| 20260507103229 | 62 | 360 | 0.0 | 8.7 | 0.00 | 0.00 | 0.00 | 44 | 1010.1 |
| 20260507102714 | 62 | 360 | 0.0 | 8.7 | 0.00 | 0.00 | 0.00 | 45 | 1010.0 |
| 20260507102104 | 63 | 360 | 0.0 | 0.0 | 0.00 | 0.00 | 0.00 | 44 | 1010.1 |
| 20260507101548 | 63 | 360 | 0.0 | 0.0 | 0.00 | 0.00 | 0.00 | 43 | 1010.1 |
| 20260507101030 | 63 | 360 | 0.0 | 0.0 | 0.00 | 0.00 | 0.00 | 43 | 1010.2 |
| 20260507100454 | 63 | 360 | 0.0 | 0.0 | 0.00 | 0.00 | 0.00 | 43 | 1010.2 |
| 20260507095933 | 64 | 360 | 0.0 | 8.7 | 0.00 | 0.00 | 0.00 | 42 | 1010.3 |
| 20260507095415 | 63 | 360 | 0.0 | 8.7 | 0.00 | 0.00 | 0.00 | 43 | 1010.5 |
| 20260507094840 | 63 | 360 | 0.0 | 0.0 | 0.00 | 0.00 | 0.00 | 42 | 1010.4 |
| 20260507094322 | 63 | 360 | 0.0 | 0.0 | 0.00 | 0.00 | 0.00 | 43 | 1010.5 |
| 20260507093804 | 64 | 360 | 0.0 | 8.7 | 0.00 | 0.00 | 0.00 | 42 | 1010.5 |
| 20260507093236 | 64 | 360 | 0.0 | 8.7 | 0.00 | 0.00 | 0.00 | 42 | 1010.5 |
| 20260507092722 | 64 | 360 | 0.0 | 8.7 | 0.00 | 0.00 | 0.00 | 43 | 1010.5 |
| 20260507092157 | 63 | 360 | 0.0 | 0.0 | 0.00 | 0.00 | 0.00 | 45 | 1010.5 |
| 20260507091635 | 63 | 360 | 0.0 | 0.0 | 0.00 | 0.00 | 0.00 | 45 | 1010.6 |
| 20260507091113 | 63 | 360 | 0.0 | 0.0 | 0.00 | 0.00 | 0.00 | 45 | 1010.6 |
| 20260507090556 | 63 | 360 | 0.0 | 0.0 | 0.00 | 0.00 | 0.00 | 45 | 1010.6 |
| 20260507090042 | 63 | 360 | 0.0 | 0.0 | 0.00 | 0.00 | 0.00 | 45 | 1010.7 |
| 20260507085514 | 63 | 360 | 0.0 | 0.0 | 0.00 | 0.00 | 0.00 | 45 | 1010.7 |
| 20260507084952 | 63 | 360 | 0.0 | 0.0 | 0.00 | 0.00 | 0.00 | 44 | 1010.6 |
| 20260507084438 | 63 | 360 | 0.0 | 0.0 | 0.00 | 0.00 | 0.00 | 44 | 1010.7 |
| 20260507083919 | 64 | 360 | 0.0 | 0.0 | 0.00 | 0.00 | 0.00 | 43 | 1010.6 |
| 20260507083402 | 63 | 360 | 0.0 | 0.0 | 0.00 | 0.00 | 0.00 | 44 | 1010.7 |
| 20260507082844 | 64 | 360 | 0.0 | 0.0 | 0.00 | 0.00 | 0.00 | 43 | 1010.7 |
| 20260507082318 | 64 | 360 | 0.0 | 0.0 | 0.00 | 0.00 | 0.00 | 43 | 1010.7 |
| 20260507081750 | 64 | 360 | 0.0 | 0.0 | 0.00 | 0.00 | 0.00 | 43 | 1010.7 |
| 20260507081221 | 64 | 360 | 0.0 | 0.0 | 0.00 | 0.00 | 0.00 | 42 | 1010.7 |
| 20260507080656 | 64 | 360 | 0.0 | 0.0 | 0.00 | 0.00 | 0.00 | 43 | 1010.7 |
| 20260507080136 | 64 | 360 | 0.0 | 0.0 | 0.00 | 0.00 | 0.00 | 43 | 1010.8 |
| 20260507075616 | 64 | 360 | 0.0 | 0.0 | 0.00 | 0.00 | 0.00 | 43 | 1010.8 |
| 20260507075059 | 65 | 360 | 0.0 | 0.0 | 0.00 | 0.00 | 0.00 | 42 | 1010.8 |
| 20260507074544 | 65 | 360 | 0.0 | 0.0 | 0.00 | 0.00 | 0.00 | 42 | 1010.8 |
| 20260507074015 | 65 | 360 | 0.0 | 0.0 | 0.00 | 0.00 | 0.00 | 43 | 1010.8 |
| 20260507073458 | 65 | 360 | 0.0 | 0.0 | 0.00 | 0.00 | 0.00 | 45 | 1010.8 |
| 20260507072943 | 65 | 360 | 0.0 | 0.0 | 0.00 | 0.00 | 0.00 | 46 | 1010.8 |
| 20260507072428 | 65 | 360 | 0.0 | 0.0 | 0.00 | 0.00 | 0.00 | 47 | 1010.8 |
| 20260507071913 | 66 | 360 | 0.0 | 0.0 | 0.00 | 0.00 | 0.00 | 46 | 1010.9 |
| 20260507071358 | 66 | 360 | 0.0 | 0.0 | 0.00 | 0.00 | 0.00 | 46 | 1011.0 |
| 20260507070843 | 66 | 360 | 0.0 | 0.0 | 0.00 | 0.00 | 0.00 | 46 | 1010.9 |
| 20260507070326 | 66 | 360 | 0.0 | 0.0 | 0.00 | 0.00 | 0.00 | 46 | 1010.9 |
| 20260507065811 | 66 | 360 | 0.0 | 0.0 | 0.00 | 0.00 | 0.00 | 46 | 1010.9 |
| 20260507065256 | 66 | 360 | 0.0 | 0.0 | 0.00 | 0.00 | 0.00 | 46 | 1010.9 |
| 20260507064738 | 66 | 360 | 0.0 | 0.0 | 0.00 | 0.00 | 0.00 | 45 | 1010.9 |
| 20260507064214 | 67 | 360 | 0.0 | 0.0 | 0.00 | 0.00 | 0.00 | 45 | 1010.8 |
| 20260507063639 | 67 | 360 | 0.0 | 0.0 | 0.00 | 0.00 | 0.00 | 45 | 1010.8 |
| 20260507063125 | 67 | 360 | 0.0 | 0.0 | 0.00 | 0.00 | 0.00 | 45 | 1010.8 |
| 20260507062610 | 67 | 360 | 0.0 | 0.0 | 0.00 | 0.00 | 0.00 | 46 | 1010.7 |
| 20260507062051 | 68 | 360 | 0.0 | 0.0 | 0.00 | 0.00 | 0.00 | 46 | 1010.8 |
| 20260507061536 | 68 | 360 | 0.0 | 0.0 | 0.00 | 0.00 | 0.00 | 45 | 1010.8 |
| 20260507060406 | 68 | 360 | 0.0 | 0.0 | 0.00 | 0.00 | 0.00 | 39 | 1010.8 |
| 20260507055846 | 68 | 360 | 0.0 | 0.0 | 0.00 | 0.00 | 0.00 | 39 | 1010.7 |
| 20260507055332 | 69 | 360 | 0.0 | 0.0 | 0.00 | 0.00 | 0.00 | 39 | 1010.7 |
| 20260507054816 | 69 | 360 | 0.0 | 0.0 | 0.00 | 0.00 | 0.00 | 39 | 1010.8 |
| 20260507054254 | 70 | 360 | 0.0 | 0.0 | 0.00 | 0.00 | 0.00 | 37 | 1010.8 |
| 20260507053735 | 71 | 360 | 0.0 | 0.0 | 0.00 | 0.00 | 0.00 | 37 | 1010.8 |
| 20260507052516 | 71 | 360 | 0.0 | 0.0 | 0.00 | 0.00 | 0.00 | 36 | 1010.8 |
| 20260507051957 | 70 | 360 | 0.0 | 8.7 | 0.00 | 0.00 | 0.00 | 36 | 1010.8 |
| 20260507051435 | 70 | 360 | 0.0 | 8.7 | 0.00 | 0.00 | 0.00 | 37 | 1010.8 |
| 20260507050856 | 70 | 360 | 0.0 | 0.0 | 0.00 | 0.00 | 0.00 | 36 | 1010.8 |
| 20260507050326 | 71 | 360 | 0.0 | 0.0 | 0.00 | 0.00 | 0.00 | 35 | 1010.7 |
| 20260507045744 | 71 | 360 | 0.0 | 8.7 | 0.00 | 0.00 | 0.00 | 35 | 1010.7 |
| 20260507045222 | 71 | 360 | 0.0 | 8.7 | 0.00 | 0.00 | 0.00 | 36 | 1010.6 |
| 20260507044707 | 71 | 360 | 0.0 | 0.0 | 0.00 | 0.00 | 0.00 | 35 | 1010.6 |
| 20260507044148 | 71 | 360 | 0.0 | 0.0 | 0.00 | 0.00 | 0.00 | 35 | 1010.6 |
| 20260507043633 | 71 | 360 | 0.0 | 0.0 | 0.00 | 0.00 | 0.00 | 34 | 1010.5 |
| 20260507043112 | 72 | 360 | 0.0 | 0.0 | 0.00 | 0.00 | 0.00 | 33 | 1010.5 |
| 20260507042554 | 72 | 360 | 0.0 | 0.0 | 0.00 | 0.00 | 0.00 | 34 | 1010.4 |
| 20260507042032 | 72 | 360 | 0.0 | 0.0 | 0.00 | 0.00 | 0.00 | 33 | 1010.4 |
| 20260507041517 | 73 | 360 | 0.0 | 0.0 | 0.00 | 0.00 | 0.00 | 32 | 1010.3 |
| 20260507040959 | 73 | 360 | 0.0 | 0.0 | 0.00 | 0.00 | 0.00 | 31 | 1010.3 |
| 20260507040445 | 73 | 360 | 0.0 | 0.0 | 0.00 | 0.00 | 0.00 | 31 | 1010.2 |
| 20260507035929 | 73 | 360 | 0.0 | 0.0 | 0.00 | 0.00 | 0.00 | 31 | 1010.2 |
| 20260507035415 | 74 | 360 | 0.0 | 0.0 | 0.00 | 0.00 | 0.00 | 31 | 1010.1 |
| 20260507034900 | 74 | 360 | 0.0 | 0.0 | 0.00 | 0.00 | 0.00 | 30 | 1010.1 |
| 20260507034345 | 74 | 360 | 0.0 | 0.0 | 0.00 | 0.00 | 0.00 | 31 | 1010.0 |
| 20260507033830 | 74 | 360 | 0.0 | 0.0 | 0.00 | 0.00 | 0.00 | 31 | 1010.0 |
| 20260507033316 | 74 | 360 | 0.0 | 0.0 | 0.00 | 0.00 | 0.00 | 31 | 1010.0 |
| 20260507032801 | 75 | 360 | 0.0 | 0.0 | 0.00 | 0.00 | 0.00 | 31 | 1009.9 |
| 20260507032241 | 75 | 360 | 0.0 | 0.0 | 0.00 | 0.00 | 0.00 | 31 | 1009.9 |
| 20260507031726 | 75 | 360 | 0.0 | 0.0 | 0.00 | 0.00 | 0.00 | 30 | 1009.8 |
| 20260507031206 | 76 | 360 | 0.0 | 0.0 | 0.00 | 0.00 | 0.00 | 29 | 1009.7 |
| 20260507030652 | 76 | 360 | 0.0 | 0.0 | 0.00 | 0.00 | 0.00 | 29 | 1009.6 |
| 20260507030135 | 76 | 360 | 0.0 | 0.0 | 0.00 | 0.00 | 0.00 | 28 | 1009.6 |
| 20260507025621 | 77 | 360 | 0.0 | 0.0 | 0.00 | 0.00 | 0.00 | 27 | 1009.6 |
| 20260507025106 | 77 | 360 | 0.0 | 0.0 | 0.00 | 0.00 | 0.00 | 27 | 1009.5 |
| 20260507024543 | 77 | 360 | 0.0 | 0.0 | 0.00 | 0.00 | 0.00 | 27 | 1009.5 |
| 20260507024021 | 78 | 360 | 0.0 | 0.0 | 0.00 | 0.00 | 0.00 | 26 | 1009.3 |
| 20260507023506 | 78 | 360 | 0.0 | 0.0 | 0.00 | 0.00 | 0.00 | 25 | 1009.4 |
| 20260507022944 | 79 | 360 | 0.0 | 0.0 | 0.00 | 0.00 | 0.00 | 25 | 1009.3 |
| 20260507022429 | 79 | 360 | 0.0 | 8.7 | 0.00 | 0.00 | 0.00 | 24 | 1009.2 |
| 20260507021915 | 79 | 360 | 0.0 | 8.7 | 0.00 | 0.00 | 0.00 | 25 | 1009.1 |
| 20260507021235 | 80 | 360 | 0.0 | 8.7 | 0.00 | 0.00 | 0.00 | 24 | 1009.1 |
| 20260507020720 | 80 | 360 | 0.0 | 17.4 | 0.00 | 0.00 | 0.00 | 23 | 1009.0 |
| 20260507020202 | 81 | 360 | 0.9 | 26.1 | 0.00 | 0.00 | 0.00 | 23 | 1009.0 |
| 20260507015648 | 81 | 360 | 1.7 | 26.1 | 0.00 | 0.00 | 0.00 | 22 | 1009.0 |
| 20260507015115 | 81 | 360 | 1.7 | 17.4 | 0.00 | 0.00 | 0.00 | 22 | 1009.0 |
| 20260507014601 | 82 | 360 | 0.9 | 34.8 | 0.00 | 0.00 | 0.00 | 22 | 1009.0 |
| 20260507014046 | 82 | 360 | 0.9 | 43.4 | 0.00 | 0.00 | 0.00 | 22 | 1009.0 |
| 20260507013529 | 82 | 360 | 1.7 | 52.1 | 0.00 | 0.00 | 0.00 | 22 | 1009.0 |
| 20260507013013 | 82 | 360 | 2.6 | 52.1 | 0.00 | 0.00 | 0.00 | 22 | 1009.0 |
| 20260507012458 | 82 | 360 | 1.7 | 52.1 | 0.00 | 0.00 | 0.00 | 22 | 1009.0 |
| 20260507011943 | 82 | 360 | 1.7 | 52.1 | 0.00 | 0.00 | 0.00 | 22 | 1009.1 |
| 20260507011422 | 82 | 360 | 0.0 | 52.1 | 0.00 | 0.00 | 0.00 | 22 | 1009.1 |
| 20260507010904 | 83 | 360 | 2.6 | 34.8 | 0.00 | 0.00 | 0.00 | 21 | 1009.0 |
| 20260507010342 | 83 | 360 | 1.7 | 34.8 | 0.00 | 0.00 | 0.00 | 22 | 1009.0 |
| 20260507005827 | 83 | 360 | 0.9 | 34.8 | 0.00 | 0.00 | 0.00 | 22 | 1009.0 |
| 20260507005308 | 83 | 360 | 2.6 | 43.4 | 0.00 | 0.00 | 0.00 | 22 | 1009.0 |
| 20260507004750 | 84 | 360 | 0.9 | 43.4 | 0.00 | 0.00 | 0.00 | 22 | 1009.0 |
| 20260507004236 | 83 | 360 | 0.9 | 43.4 | 0.00 | 0.00 | 0.00 | 22 | 1009.0 |
| 20260507003714 | 83 | 360 | 1.7 | 43.4 | 0.00 | 0.00 | 0.00 | 21 | 1009.0 |
| 20260507003159 | 83 | 360 | 0.9 | 34.8 | 0.00 | 0.00 | 0.00 | 22 | 1009.0 |
| 20260507002640 | 84 | 360 | 0.0 | 43.4 | 0.00 | 0.00 | 0.00 | 21 | 1009.0 |
| 20260507002118 | 84 | 360 | 3.5 | 43.4 | 0.00 | 0.00 | 0.00 | 22 | 1008.9 |
| 20260507001551 | 84 | 360 | 0.9 | 34.8 | 0.00 | 0.00 | 0.00 | 22 | 1008.9 |
| 20260507001035 | 84 | 360 | 0.9 | 43.4 | 0.00 | 0.00 | 0.00 | 21 | 1008.8 |
| 20260507000520 | 84 | 360 | 1.7 | 43.4 | 0.00 | 0.00 | 0.00 | 22 | 1008.9 |
| 20260507000003 | 84 | 360 | 2.6 | 43.4 | 0.00 | 0.00 | 0.00 | 21 | 1009.0 |
| 20260506235445 | 83 | 360 | 0.9 | 69.5 | 0.00 | 0.00 | 0.00 | 22 | 1009.0 |
| 20260506234930 | 84 | 360 | 1.7 | 69.5 | 0.00 | 0.00 | 0.00 | 22 | 1009.0 |
| 20260506234414 | 84 | 360 | 2.6 | 69.5 | 0.00 | 0.00 | 0.00 | 22 | 1009.0 |
| 20260506233900 | 84 | 360 | 2.6 | 86.9 | 0.00 | 0.00 | 0.00 | 22 | 1009.1 |
| 20260506233342 | 84 | 360 | 2.6 | 52.1 | 0.00 | 0.00 | 0.00 | 22 | 1009.0 |
| 20260506232817 | 84 | 360 | 2.6 | 52.1 | 0.00 | 0.00 | 0.00 | 22 | 1009.1 |
| 20260506232246 | 84 | 360 | 2.6 | 52.1 | 0.00 | 0.00 | 0.00 | 22 | 1009.2 |
| 20260506231726 | 84 | 360 | 1.7 | 69.5 | 0.00 | 0.00 | 0.00 | 23 | 1009.2 |
| 20260506231208 | 84 | 360 | 3.5 | 78.2 | 0.00 | 0.00 | 0.00 | 21 | 1009.3 |
| 20260506230648 | 84 | 360 | 0.0 | 43.4 | 0.00 | 0.00 | 0.00 | 21 | 1009.4 |
| 20260506230133 | 84 | 360 | 0.0 | 78.2 | 0.00 | 0.00 | 0.00 | 22 | 1009.5 |
| 20260506225614 | 85 | 360 | 4.3 | 78.2 | 0.00 | 0.00 | 0.00 | 22 | 1009.6 |
| 20260506225052 | 85 | 360 | 1.7 | 78.2 | 0.00 | 0.00 | 0.00 | 22 | 1009.6 |
| 20260506224538 | 84 | 360 | 1.7 | 52.1 | 0.00 | 0.00 | 0.00 | 23 | 1009.6 |
| 20260506224023 | 85 | 360 | 4.3 | 52.1 | 0.00 | 0.00 | 0.00 | 23 | 1009.8 |
| 20260506223505 | 84 | 360 | 0.9 | 34.8 | 0.00 | 0.00 | 0.00 | 23 | 1009.8 |
| 20260506222950 | 84 | 360 | 1.7 | 78.2 | 0.00 | 0.00 | 0.00 | 23 | 1009.8 |
| 20260506222418 | 84 | 360 | 0.9 | 78.2 | 0.00 | 0.00 | 0.00 | 22 | 1010.0 |
| 20260506221838 | 85 | 360 | 0.9 | 69.5 | 0.00 | 0.00 | 0.00 | 22 | 1010.0 |
| 20260506221323 | 85 | 360 | 0.9 | 69.5 | 0.00 | 0.00 | 0.00 | 22 | 1010.0 |
| 20260506220806 | 84 | 360 | 0.9 | 34.8 | 0.00 | 0.00 | 0.00 | 23 | 1010.1 |
| 20260506220246 | 84 | 360 | 1.7 | 43.4 | 0.00 | 0.00 | 0.00 | 23 | 1010.2 |
| 20260506215724 | 84 | 360 | 0.9 | 78.2 | 0.00 | 0.00 | 0.00 | 23 | 1010.3 |
| 20260506215210 | 84 | 360 | 2.6 | 78.2 | 0.00 | 0.00 | 0.00 | 23 | 1010.3 |
| 20260506214650 | 83 | 360 | 2.6 | 78.2 | 0.00 | 0.00 | 0.00 | 23 | 1010.4 |
| 20260506214124 | 84 | 360 | 0.9 | 78.2 | 0.00 | 0.00 | 0.00 | 23 | 1010.5 |